STARLINK-32841, 62865

Orbit data source: Space-Track

STARLINK-32841, 62865 is a payload satellite owned by SpaceX/Seattle (US) in LEO that was launched on Sat, 01 Feb 2025 UTC via an FALCON 9 launch vehicle from the Air Force Western Test Range (AFWTR). Payload-class satellites include a variety of spacecraft equipped with specific instruments for various scientific and technological missions. These include communications satellites like Starlink; space stations such as the ISS; scientific satellites like the Hubble; Earth observation satellites from companies like Planet Labs, Umbra, and HawkEye 360; GPS; miniature CubeSats for education and research; and military/defense satellites.

Loading next visibility...
Identifier
62865, 2025-022M
Orbit
LEO
Country
Flag of USUS
Related business
Manufacturer
SpaceX/Seattle
Mission
Operational Commercial Communications
Bus & Motor
STARLINK V2M, Unknown motor
Mass
730 kg wet, ~700 kg dry
Launch date (UTC)
2025-02-01 (9 months ago)
Launch vehicle
FALCON 9
Launch site
Air Force Western Test Range (AFWTR)
Object type
Payload
Rocket body
Debris
Shape & HBR
Box + 2 Pan, 17.7 m
Radar Cross Section
33.884 m², Large (>1 m²)

Expand to show TLE details & history
Last TLE update: 8 hours ago

TLE from 8 hours ago
0 STARLINK-32841
1 62865U 25022M   25304.71691264  .00054148  00000-0  18288-2 0  9999
2 62865  53.1609   8.6951 0001272  70.9470 289.1669 15.30169295 42144
Epoch: 2025-10-31T17:12Z
TLE epoch observation values (Epoch: 2025-10-31T17:12:21.252Z)
Latitude
0.00004°
Longitude
70.34924°
Altitude
475.92 km
Speed
7.629 km/s
True Right ascension
00h 34m 46s
True Declination
0° 00' 00"
Sunlit
Object was in full shadow at epoch
Visualization orbit readout
Latitude
Unknown
Longitude
Unknown
Altitude
Unknown
Speed
Unknown
Apparent Right ascension
Unknown
Apparent Declination
Unknown
Sunlit
N/A
Visualization observer readout
Local Sidereal Time
21:01:45
Azimuth
Unknown
Elevation
Unknown
Doppler factor
Unknown
Orbital elements
Apogee altitude
476.435 km
Perigee altitude
474.691 km
Semi-major axis
6,853.7 km
Eccentricity
0.00013
Inclination
53.1609°
RAAN
8.6951°
Arg. of periapsis
70.947°
True anomaly
289.15313°
Mean anomaly
289.1669°
Eccentric anomaly
289.16002°
Mean motion
3.82521 °/min
Orbital period
94.11 mins
BSTAR
0.0018288
Loading maneuver chart data...
Computing Atmospheric mass density...
Loading historical data...
Loading historical data...
Loading historical data...
Loading historical data...
Loading historical data...
Loading historical data...
Loading historical data...

Documentation

Showing up to 5 results
|